This demonstration page uses our WeatherBlox Daily Observations layout. Learn more.

Left ArrowRight Arrow

41.86663, -103.66717

Hourly Observations for June 28, 2020

Temp ( °F °C ) Dew Point ( °F °C ) Humidity (%) Winds ( mph kmh ) Pressure ( in mb ) Visibility ( mi km ) Precip ( " mm )
12:53 am 00:53 Clear 65 18.3 55 12.8 70 70 E 6 9 29.46 998 10 16 0.00 0.00
1:53 am 01:53 Clear 63 17.2 56 13.3 78 78 E 7 11 29.46 998 10 16 0.00 0.00
2:53 am 02:53 Clear 63 17.2 57 13.9 81 81 ENE 7 11 29.43 997 10 16 0.00 0.00
3:53 am 03:53 Clear 61 16.1 55 12.8 81 81 E 5 7 29.43 997 10 16 0.00 0.00
4:53 am 04:53 Clear 59 15 54 12.2 83 83 N 5 7 29.44 997 10 16 0.00 0.00
5:53 am 05:53 Sunny 60 15.6 53 11.7 78 78 undefined N/A 29.46 998 10 16 0.00 0.00
6:53 am 06:53 Sunny 64 17.8 55 12.8 73 73 undefined N/A 29.49 999 10 16 0.00 0.00
7:53 am 07:53 Sunny 73 22.8 50 10 44 44 W 6 9 29.48 998 10 16 0.00 0.00
8:53 am 08:53 Sunny 79 26.1 48 8.9 34 34 W 9 15 29.49 999 10 16 0.00 0.00
9:53 am 09:53 Sunny 85 29.4 46 7.8 26 26 W 12 19 29.47 998 10 16 0.00 0.00
10:53 am 10:53 Sunny 89 31.7 44 6.7 21 21 WNW 6 9 29.45 997 10 16 0.00 0.00
11:53 am 11:53 Sunny 92 33.3 43 6.1 18 18 W 12 19 29.44 997 10 16 0.00 0.00
12:53 pm 12:53 Sunny 94 34.4 44 6.7 18 18 VRB 7 11 29.43 997 10 16 0.00 0.00
1:53 pm 13:53 Sunny 93 33.9 43 6.1 18 18 VRB 3 6 29.42 996 10 16 0.00 0.00
2:53 pm 14:53 Sunny 95 35 41 5 15 15 Calm 29.40 996 10 16 0.00 0.00
3:53 pm 15:53 Mostly Sunny 92 33.3 46 7.8 21 21 SE 15 24 29.40 996 10 16 0.00 0.00
4:00 pm 16:00 Partly Cloudy with Nearby Thunderstorms 91 32.8 49 9.4 24 24 SE 13 20 29.21 989 10 16 0.00 0.00
4:15 pm 16:15 Mostly Cloudy with Light Rain 87 30.6 54 12.2 32 32 E 9 15 29.23 990 10 16 0.00 0.00
4:34 pm 16:34 Partly Cloudy with Thunderstorms 88 31 55 13 33 33 ESE 13 20 29.24 990 10 16 0.00 0.00
4:49 pm 16:49 Partly Cloudy 88 31 52 11 29 29 SE 15 24 29.23 990 10 16 0.00 0.00
4:53 pm 16:53 Partly Cloudy with Light Rain 86 30 54 12.2 33 33 SE 16 26 29.42 996 10 16 0.00 0.00
5:25 pm 17:25 Cloudy with Thunderstorms 81 27.2 57 13.9 44 44 undefined N/A 29.32 993 10 16 0.00 0.00
5:48 pm 17:48 Cloudy with Light Rain 79 26 54 12 42 42 S 10 17 29.37 995 10 16 0.01 0.25
5:53 pm 17:53 Cloudy with Nearby Thunderstorms 76 24.4 57 13.9 52 52 VRB 3 6 29.49 999 8 13 0.01 0.25
6:12 pm 18:12 Mostly Cloudy 80 26.7 55 12.8 42 42 ENE 13 20 29.30 992 10 16 0.01 0.25
6:53 pm 18:53 Sunny 79 26.1 57 13.9 47 47 undefined N/A 29.43 997 10 16 0.01 0.25
7:53 pm 19:53 Sunny 77 25 56 13.3 48 48 ESE 9 15 29.41 996 10 16 0.00 0.00
8:53 pm 20:53 Clear 72 22.2 57 13.9 59 59 ESE 12 19 29.41 996 10 16 0.00 0.00
9:53 pm 21:53 Clear 73 22.8 55 12.8 53 53 SE 16 26 29.43 997 10 16 0.00 0.00
10:53 pm 22:53 Clear 70 21.1 56 13.3 61 61 SE 16 26 29.41 996 10 16 0.00 0.00
11:53 pm 23:53 Clear 69 20.6 58 14.4 68 68 ESE 12 19 29.40 996 10 16 0.00 0.00

Powered by AerisWeather